Weather History for Berlin, NH

Change the Weather History Date:

Saturday, January 1, 2011

  Actual Average Record
Temperature  
Mean Temperature 38 °F -  
Max Temperature 44 °F 25 °F 48 °F (2005)
Min Temperature 33 °F 5 °F -18 °F (1998)
Degree Days  
Heating Degree Days 26    
Moisture  
Dew Point 35 °F    
Average Humidity 97    
Maximum Humidity 100    
Minimum Humidity 85    
Precipitation  
Precipitation 0.07 in - - ()
Sea Level Pressure  
Sea Level Pressure 30.02 in    
Wind  
Wind Speed 0 mph (ENE)    
Max Wind Speed 7 mph    
Max Gust Speed -    
Visibility 2 miles    
Events Fog , Rain    
Averages and records for this station are not official NWS values.
T = Trace of Precipitation, MM = Missing Value Source: NWS Daily Summary

Daily Weather History Graph

Daily Weather History Graph

Search for Another Location

Airport:

Trip Planner

Search our weather history database for the weather conditions in past years. The results will help you decide how hot, cold, wet, or windy it might be!

Date:

Astronomy

Jan. 01, 2011 Rise Set
Actual Time 7:21 AM EST 4:15 PM EST
Civil Twilight 6:48 AM EST 4:48 PM EST
Nautical Twilight 6:11 AM EST 5:25 PM EST
Astronomical Twilight 5:35 AM EST 6:00 PM EST
Moon 4:53 AM EST (1/1) 1:46 PM EST (1/1)
Length of Visible Light 10h 00m
Length of Day
8h 53m
Waning Crescent, 8% of the Moon is Illuminated
Jan 1
Waning Crescent
Jan 4
New
Jan 12
First Quarter
Jan 19
Full
Jan 26
Last Quarter

Hourly Weather History & Observations

Time (EST) Temp. Windchill Dew Point Humidity Pressure Visibility Wind Dir Wind Speed Gust Speed Precip Events Conditions
12:52 AM 34.0 °F - 30.9 °F 89% 30.03 in 7.0 mi Calm Calm - N/A   Overcast
1:19 AM 33.8 °F - 32.0 °F 93% 29.98 in 7.0 mi Calm Calm - 0.00 in   Overcast
1:41 AM 33.8 °F - 32.0 °F 93% 30.00 in 1.8 mi Calm Calm - 0.03 in Rain Rain
1:52 AM 34.0 °F - 32.0 °F 92% 30.04 in 2.0 mi Calm Calm - 0.05 in Rain Rain
2:50 AM 33.8 °F - 32.0 °F 93% 30.00 in 2.0 mi Calm Calm - 0.01 in   Overcast
2:52 AM 34.0 °F - 33.1 °F 96% 30.04 in 2.5 mi Calm Calm - 0.01 in   Overcast
3:00 AM 33.8 °F - 33.8 °F 100% 30.00 in 3.0 mi Calm Calm - N/A   Overcast
3:39 AM 35.6 °F - 33.8 °F 93% 30.01 in 2.5 mi Calm Calm - 0.00 in   Overcast
3:52 AM 34.0 °F - 34.0 °F 100% 30.05 in 1.5 mi Calm Calm - 0.00 in   Overcast
4:05 AM 33.8 °F - 33.8 °F 100% 30.01 in 1.0 mi Calm Calm - 0.00 in   Overcast
4:16 AM 33.8 °F - 33.8 °F 100% 30.01 in 0.8 mi Calm Calm - 0.00 in   Overcast
4:28 AM 33.8 °F - 33.8 °F 100% 30.02 in 0.8 mi Calm Calm - 0.00 in   Overcast
4:47 AM 33.8 °F - 33.8 °F 100% 30.02 in 0.8 mi Calm Calm - 0.00 in   Overcast
4:52 AM 34.0 °F - 33.1 °F 96% 30.07 in 1.2 mi Calm Calm - 0.00 in   Overcast
5:02 AM 33.8 °F - 33.8 °F 100% 30.02 in 1.5 mi Calm Calm - N/A   Overcast
5:06 AM 33.8 °F - 33.8 °F 100% 30.03 in 1.2 mi Calm Calm - N/A   Overcast
5:21 AM 33.8 °F - 33.8 °F 100% 30.03 in 1.5 mi Calm Calm - 0.01 in   Overcast
5:31 AM 33.8 °F - 33.8 °F 100% 30.03 in 1.2 mi Calm Calm - 0.01 in   Overcast
5:50 AM 33.8 °F - 33.8 °F 100% 30.03 in 1.0 mi Calm Calm - 0.01 in   Overcast
5:52 AM 34.0 °F - 33.1 °F 96% 30.08 in 1.0 mi Calm Calm - 0.01 in   Overcast
6:41 AM 33.8 °F - 33.8 °F 100% 30.04 in 0.5 mi Calm Calm - N/A Fog Fog
6:52 AM 34.0 °F - 33.1 °F 96% 30.08 in 1.0 mi Calm Calm - N/A   Overcast
7:03 AM 33.8 °F - 33.8 °F 100% 30.03 in 0.5 mi Calm Calm - N/A Fog Fog
7:16 AM 33.8 °F - 33.8 °F 100% 30.03 in 1.5 mi Calm Calm - N/A   Overcast
7:30 AM 35.6 °F - 33.8 °F 93% 30.03 in 2.0 mi Calm Calm - N/A   Overcast
7:35 AM 35.6 °F - 33.8 °F 93% 30.03 in 1.2 mi Calm Calm - N/A   Overcast
7:44 AM 33.8 °F - 33.8 °F 100% 30.03 in 0.5 mi Calm Calm - N/A Fog Fog
7:52 AM 34.0 °F - 34.0 °F 100% 30.08 in 0.8 mi Calm Calm - N/A   Overcast
7:59 AM 33.8 °F - 33.8 °F 100% 30.03 in 0.8 mi Calm Calm - N/A   Overcast
8:30 AM 33.8 °F - 33.8 °F 100% 30.03 in 1.0 mi Calm Calm - N/A   Overcast
8:41 AM 33.8 °F - 33.8 °F 100% 30.03 in 0.5 mi Calm Calm - N/A Fog Fog
8:52 AM 35.1 °F - 34.0 °F 96% 30.07 in 0.8 mi Calm Calm - N/A   Overcast
9:12 AM 33.8 °F - 33.8 °F 100% 30.05 in 0.8 mi Calm Calm - N/A   Overcast
9:18 AM 35.6 °F - 33.8 °F 93% 30.05 in 1.5 mi Calm Calm - N/A   Overcast
9:25 AM 33.8 °F - 33.8 °F 100% 30.06 in 1.2 mi Calm Calm - N/A   Overcast
9:52 AM 35.1 °F - 34.0 °F 96% 30.09 in 1.0 mi Calm Calm - N/A   Overcast
9:59 AM 35.6 °F - 35.6 °F 100% 30.06 in 0.5 mi Calm Calm - N/A Fog Fog
10:18 AM 35.6 °F - 35.6 °F 100% 30.05 in 1.0 mi Calm Calm - N/A   Overcast
10:36 AM 35.6 °F - 35.6 °F 100% 30.05 in 1.8 mi Calm Calm - N/A   Overcast
10:45 AM 37.4 °F - 35.6 °F 93% 30.05 in 2.0 mi Calm Calm - N/A   Overcast
10:52 AM 37.0 °F - 36.0 °F 96% 30.10 in 2.5 mi Calm Calm - N/A   Overcast
11:04 AM 37.4 °F - 35.6 °F 93% 30.05 in 1.8 mi Calm Calm - N/A   Overcast
11:36 AM 37.4 °F - 35.6 °F 93% 30.04 in 1.8 mi Calm Calm - N/A   Overcast
11:40 AM 37.4 °F - 35.6 °F 93% 30.04 in 2.0 mi Calm Calm - N/A   Overcast
11:52 AM 37.9 °F - 37.0 °F 97% 30.07 in 3.0 mi Calm Calm - N/A   Overcast
11:59 AM 37.4 °F - 35.6 °F 93% 30.03 in 1.8 mi Calm Calm - N/A   Overcast
12:13 PM 37.4 °F - 37.4 °F 100% 30.02 in 2.5 mi Calm Calm - N/A   Overcast
12:52 PM 39.9 °F - 39.0 °F 97% 30.05 in 4.0 mi Calm Calm - N/A   Clear
1:25 PM 39.2 °F - 39.2 °F 100% 30.01 in 2.0 mi Calm Calm - N/A   Scattered Clouds
1:31 PM 42.8 °F - 39.2 °F 87% 30.01 in 3.0 mi Calm Calm - N/A   Mostly Cloudy
1:47 PM 42.8 °F - 39.2 °F 87% 30.01 in 5.0 mi Calm Calm - N/A   Scattered Clouds
1:52 PM 44.1 °F - 39.9 °F 85% 30.04 in 6.0 mi Calm Calm - N/A   Scattered Clouds
2:52 PM 39.9 °F - 37.9 °F 93% 30.04 in 2.5 mi Calm Calm - N/A   Clear
3:10 PM 39.2 °F - 39.2 °F 100% 30.00 in 1.8 mi Calm Calm - N/A   Clear
3:15 PM 41.0 °F - 39.2 °F 93% 30.00 in 3.0 mi Calm Calm - N/A   Clear
3:30 PM 39.2 °F - 37.4 °F 93% 30.00 in 2.0 mi Calm Calm - N/A   Mostly Cloudy
3:52 PM 37.9 °F - 37.0 °F 97% 30.04 in 1.8 mi Calm Calm - N/A   Overcast
4:02 PM 37.4 °F - 37.4 °F 100% 30.00 in 2.5 mi Calm Calm - N/A   Overcast
4:21 PM 37.4 °F - 35.6 °F 93% 30.00 in 1.5 mi Calm Calm - N/A   Overcast
4:27 PM 37.4 °F - 35.6 °F 93% 30.00 in 3.0 mi Calm Calm - N/A   Overcast
4:52 PM 35.1 °F - 34.0 °F 96% 30.04 in 4.0 mi Calm Calm - N/A   Overcast
5:21 PM 35.6 °F - 35.6 °F 100% 30.00 in 1.8 mi Calm Calm - N/A   Overcast
5:25 PM 35.6 °F - 33.8 °F 93% 30.00 in 0.8 mi Calm Calm - N/A   Overcast
5:38 PM 35.6 °F - 33.8 °F 93% 30.00 in 0.2 mi Calm Calm - N/A Fog Fog
5:50 PM 33.8 °F - 33.8 °F 100% 29.99 in 0.8 mi Calm Calm - N/A   Overcast
5:52 PM 34.0 °F - 34.0 °F 100% 30.03 in 0.8 mi Calm Calm - N/A   Overcast
6:03 PM 33.8 °F - 33.8 °F 100% 29.99 in 0.2 mi Calm Calm - N/A Fog Fog
6:52 PM 35.1 °F 30.1 °F 34.0 °F 96% 30.00 in 0.5 mi East 5.8 mph - N/A Fog Fog
7:39 PM 35.6 °F - 35.6 °F 100% 29.97 in 0.2 mi Calm Calm - N/A Fog Fog
7:52 PM 35.1 °F - 34.0 °F 96% 30.00 in 0.2 mi Calm Calm - N/A Fog Fog
8:04 PM 35.6 °F 31.7 °F 35.6 °F 100% 29.91 in 0.5 mi ENE 4.6 mph - N/A Fog Fog
8:52 PM 36.0 °F 32.1 °F 35.1 °F 97% 29.96 in 0.5 mi South 4.6 mph - N/A Fog Fog
9:00 PM 35.6 °F - 35.6 °F 100% 29.92 in 0.2 mi Calm Calm - N/A Fog Fog
9:08 PM 37.4 °F - 35.6 °F 93% 29.92 in 0.8 mi Calm Calm - N/A   Overcast
9:32 PM 37.4 °F - 35.6 °F 93% 29.93 in 1.8 mi Calm Calm - N/A   Overcast
9:41 PM 37.4 °F - 37.4 °F 100% 29.94 in 2.5 mi Calm Calm - N/A   Overcast
9:45 PM 35.6 °F - 35.6 °F 100% 29.94 in 1.2 mi Calm Calm - N/A   Overcast
9:52 PM 37.9 °F - 36.0 °F 93% 29.96 in 1.0 mi Calm Calm - N/A   Overcast
10:03 PM 39.2 °F 37.0 °F 37.4 °F 93% 29.90 in 6.0 mi Variable 3.5 mph - N/A   Overcast
10:52 PM 37.0 °F - 37.0 °F 100% 29.96 in 4.0 mi Calm Calm - N/A   Overcast
11:52 PM 37.9 °F 32.7 °F 36.0 °F 93% 29.93 in 5.0 mi NNW 6.9 mph - 0.00 in   Overcast